contact:dominique.lefevre@mio.osupytheas.fr, maurice.libes@osupytheas.fr, didier.mallarino@osupytheas.fr
Project:EMSO http://www.emso-fr.org/EMSO-France
Depth: 2436.0 m
Title:EMSO Ligure Ouest : Data MII capteur MICROCAT
DateTime_Computer,Latitude,Longitude,Temperature,Conductivity,Pressure,DateTime_Instrument
DateTime_Computer,Latitude,Longitude,degC,S m-1,dbar,DateTime_Instrument
2021-02-09T00:01:09Z,42.805,6.029,13.2995,4.60034,2470.156,2021-2-09T02:02:12Z
2021-02-09T00:04:12Z,42.805,6.029,13.2999,4.60024,2470.147,2021-2-09T02:05:15Z
2021-02-09T00:07:15Z,42.805,6.029,13.3010,4.60038,2470.147,2021-2-09T02:08:18Z
2021-02-09T00:10:18Z,42.805,6.029,13.3004,4.60051,2470.133,2021-2-09T02:11:21Z
2021-02-09T00:13:21Z,42.805,6.029,13.3013,4.60048,2470.171,2021-2-09T02:14:25Z
2021-02-09T00:16:24Z,42.805,6.029,13.3000,4.60049,2470.156,2021-2-09T02:17:28Z
2021-02-09T00:19:27Z,42.805,6.029,13.3004,4.60042,2470.133,2021-2-09T02:20:31Z
2021-02-09T00:22:31Z,42.805,6.029,13.3014,4.60021,2470.147,2021-2-09T02:23:34Z
2021-02-09T00:25:34Z,42.805,6.029,13.3014,4.60011,2470.194,2021-2-09T02:26:37Z
2021-02-09T00:28:37Z,42.805,6.029,13.2995,4.60021,2470.171,2021-2-09T02:29:40Z
2021-02-09T00:31:40Z,42.805,6.029,13.2998,4.60028,2470.18,2021-2-09T02:32:43Z
2021-02-09T00:34:43Z,42.805,6.029,13.2996,4.60031,2470.18,2021-2-09T02:35:46Z
2021-02-09T00:37:46Z,42.805,6.029,13.2998,4.60018,2470.171,2021-2-09T02:38:50Z
2021-02-09T00:40:49Z,42.805,6.029,13.3003,4.60039,2470.156,2021-2-09T02:41:53Z
2021-02-09T00:43:52Z,42.805,6.029,13.3004,4.60035,2470.133,2021-2-09T02:44:56Z
2021-02-09T00:46:56Z,42.805,6.029,13.2991,4.60013,2470.194,2021-2-09T02:47:59Z
2021-02-09T00:49:59Z,42.805,6.029,13.2998,4.60029,2470.147,2021-2-09T02:51:02Z
2021-02-09T00:53:02Z,42.805,6.029,13.2994,4.60023,2470.18,2021-2-09T02:54:05Z
2021-02-09T00:56:05Z,42.805,6.029,13.2993,4.60019,2470.171,2021-2-09T02:57:08Z
2021-02-09T00:59:08Z,42.805,6.029,13.3006,4.60039,2470.143,2021-2-09T03:00:11Z
2021-02-09T01:02:11Z,42.805,6.029,13.3027,4.60044,2470.156,2021-2-09T03:03:15Z
2021-02-09T01:05:14Z,42.805,6.029,13.2993,4.60022,2470.147,2021-2-09T03:06:18Z
2021-02-09T01:08:17Z,42.805,6.029,13.2996,4.60024,2470.18,2021-2-09T03:09:21Z
2021-02-09T01:11:20Z,42.805,6.029,13.3001,4.60052,2470.194,2021-2-09T03:12:24Z
2021-02-09T01:14:24Z,42.805,6.029,13.3006,4.60044,2470.18,2021-2-09T03:15:27Z
2021-02-09T01:17:27Z,42.805,6.029,13.3004,4.60038,2470.227,2021-2-09T03:18:30Z
2021-02-09T01:20:30Z,42.805,6.029,13.3027,4.60043,2470.203,2021-2-09T03:21:33Z
2021-02-09T01:23:33Z,42.805,6.029,13.3014,4.60039,2470.194,2021-2-09T03:24:36Z
2021-02-09T01:26:36Z,42.805,6.029,13.3022,4.60016,2470.18,2021-2-09T03:27:39Z
2021-02-09T01:29:39Z,42.805,6.029,13.3009,4.60053,2470.194,2021-2-09T03:30:43Z
2021-02-09T01:32:42Z,42.805,6.029,13.2993,4.60054,2470.24,2021-2-09T03:33:46Z
2021-02-09T01:35:45Z,42.805,6.029,13.2991,4.60029,2470.18,2021-2-09T03:36:49Z
2021-02-09T01:38:49Z,42.805,6.029,13.2993,4.60021,2470.227,2021-2-09T03:39:52Z
2021-02-09T01:41:52Z,42.805,6.029,13.2996,4.60036,2470.18,2021-2-09T03:42:55Z
2021-02-09T01:44:55Z,42.805,6.029,13.3015,4.60015,2470.203,2021-2-09T03:45:58Z
2021-02-09T01:47:58Z,42.805,6.029,13.2993,4.60047,2470.194,2021-2-09T03:49:01Z
2021-02-09T01:51:01Z,42.805,6.029,13.3000,4.60049,2470.217,2021-2-09T03:52:04Z
2021-02-09T01:54:04Z,42.805,6.029,13.3000,4.60049,2470.24,2021-2-09T03:55:08Z
2021-02-09T01:57:07Z,42.805,6.029,13.3004,4.60057,2470.217,2021-2-09T03:58:11Z
2021-02-09T02:00:10Z,42.805,6.029,13.3012,4.60046,2470.24,2021-2-09T04:01:14Z
2021-02-09T02:03:13Z,42.805,6.029,13.2998,4.60068,2470.203,2021-2-09T04:04:17Z
2021-02-09T02:06:17Z,42.805,6.029,13.3002,4.60041,2470.227,2021-2-09T04:07:20Z
2021-02-09T02:09:20Z,42.805,6.029,13.3005,4.60033,2470.227,2021-2-09T04:10:23Z
2021-02-09T02:12:23Z,42.805,6.029,13.3011,4.60031,2470.217,2021-2-09T04:13:26Z
2021-02-09T02:15:26Z,42.805,6.029,13.3004,4.60040,2470.24,2021-2-09T04:16:29Z
2021-02-09T02:18:29Z,42.805,6.029,13.3009,4.60028,2470.24,2021-2-09T04:19:32Z
2021-02-09T02:21:32Z,42.805,6.029,13.3019,4.60060,2470.227,2021-2-09T04:22:36Z
2021-02-09T02:24:35Z,42.805,6.029,13.3025,4.60049,2470.227,2021-2-09T04:25:39Z
2021-02-09T02:27:38Z,42.805,6.029,13.2995,4.60039,2470.227,2021-2-09T04:28:42Z
2021-02-09T02:30:42Z,42.805,6.029,13.2999,4.60044,2470.203,2021-2-09T04:31:45Z
2021-02-09T02:33:45Z,42.805,6.029,13.2999,4.60043,2470.24,2021-2-09T04:34:48Z
2021-02-09T02:36:48Z,42.805,6.029,13.3003,4.60039,2470.227,2021-2-09T04:37:51Z
2021-02-09T02:39:51Z,42.805,6.029,13.3002,4.60045,2470.24,2021-2-09T04:40:54Z
2021-02-09T02:42:54Z,42.805,6.029,13.3005,4.60037,2470.25,2021-2-09T04:43:57Z
2021-02-09T02:45:57Z,42.805,6.029,13.2998,4.60032,2470.273,2021-2-09T04:47:01Z
2021-02-09T02:49:00Z,42.805,6.029,13.2998,4.60043,2470.264,2021-2-09T04:50:04Z
2021-02-09T02:52:03Z,42.805,6.029,13.3025,4.60060,2470.273,2021-2-09T04:53:07Z
2021-02-09T02:55:07Z,42.805,6.029,13.3026,4.60079,2470.264,2021-2-09T04:56:10Z
2021-02-09T02:58:10Z,42.805,6.029,13.3018,4.60061,2470.273,2021-2-09T04:59:13Z
2021-02-09T03:01:13Z,42.805,6.029,13.3035,4.60069,2470.31,2021-2-09T05:02:16Z
2021-02-09T03:04:16Z,42.805,6.029,13.3032,4.60046,2470.273,2021-2-09T05:05:19Z
2021-02-09T03:07:19Z,42.805,6.029,13.3040,4.60072,2470.31,2021-2-09T05:08:22Z
2021-02-09T03:10:22Z,42.805,6.029,13.3023,4.60052,2470.273,2021-2-09T05:11:25Z
2021-02-09T03:13:25Z,42.805,6.029,13.3031,4.60044,2470.287,2021-2-09T05:14:29Z
2021-02-09T03:16:28Z,42.805,6.029,13.3026,4.60078,2470.334,2021-2-09T05:17:32Z
2021-02-09T03:19:31Z,42.805,6.029,13.3026,4.60021,2470.31,2021-2-09T05:20:35Z
2021-02-09T03:22:35Z,42.805,6.029,13.3032,4.60064,2470.273,2021-2-09T05:23:38Z
2021-02-09T03:25:38Z,42.805,6.029,13.2996,4.60052,2470.297,2021-2-09T05:26:41Z
2021-02-09T03:28:41Z,42.805,6.029,13.3004,4.60054,2470.334,2021-2-09T05:29:44Z
2021-02-09T03:31:44Z,42.805,6.029,13.3011,4.60054,2470.357,2021-2-09T05:32:47Z
2021-02-09T03:34:47Z,42.805,6.029,13.3004,4.60053,2470.334,2021-2-09T05:35:50Z
2021-02-09T03:37:50Z,42.805,6.029,13.3006,4.60070,2470.31,2021-2-09T05:38:54Z
2021-02-09T03:40:53Z,42.805,6.029,13.3023,4.60042,2470.32,2021-2-09T05:41:57Z
2021-02-09T03:43:56Z,42.805,6.029,13.3003,4.60067,2470.343,2021-2-09T05:45:00Z
2021-02-09T03:47:00Z,42.805,6.029,13.3011,4.60043,2470.31,2021-2-09T05:48:03Z
2021-02-09T03:50:03Z,42.805,6.029,13.3004,4.60043,2470.343,2021-2-09T05:51:06Z
2021-02-09T03:53:06Z,42.805,6.029,13.3006,4.60068,2470.297,2021-2-09T05:54:09Z
2021-02-09T03:56:09Z,42.805,6.029,13.3015,4.60052,2470.343,2021-2-09T05:57:12Z
2021-02-09T03:59:12Z,42.805,6.029,13.2993,4.60034,2470.334,2021-2-09T06:00:15Z
2021-02-09T04:02:15Z,42.805,6.029,13.3000,4.60051,2470.334,2021-2-09T06:03:19Z
2021-02-09T04:05:18Z,42.805,6.029,13.3014,4.60021,2470.357,2021-2-09T06:06:22Z
2021-02-09T04:08:21Z,42.805,6.029,13.3026,4.60057,2470.32,2021-2-09T06:09:25Z
2021-02-09T04:11:24Z,42.805,6.029,13.3005,4.60062,2470.404,2021-2-09T06:12:28Z
2021-02-09T04:14:28Z,42.805,6.029,13.3021,4.60041,2470.38,2021-2-09T06:15:31Z
2021-02-09T04:17:31Z,42.805,6.029,13.2997,4.60039,2470.357,2021-2-09T06:18:34Z
2021-02-09T04:20:34Z,42.805,6.029,13.3004,4.60046,2470.366,2021-2-09T06:21:37Z
2021-02-09T04:23:37Z,42.805,6.029,13.2991,4.60029,2470.38,2021-2-09T06:24:40Z
2021-02-09T04:26:40Z,42.805,6.029,13.2993,4.60057,2470.343,2021-2-09T06:27:43Z
2021-02-09T04:29:43Z,42.805,6.029,13.2992,4.60058,2470.38,2021-2-09T06:30:47Z
2021-02-09T04:32:46Z,42.805,6.029,13.3002,4.60055,2470.38,2021-2-09T06:33:50Z
2021-02-09T04:35:49Z,42.805,6.029,13.3007,4.60059,2470.38,2021-2-09T06:36:53Z
2021-02-09T04:38:53Z,42.805,6.029,13.3015,4.60038,2470.343,2021-2-09T06:39:56Z
2021-02-09T04:41:56Z,42.805,6.029,13.2993,4.60044,2470.38,2021-2-09T06:42:59Z
2021-02-09T04:44:59Z,42.805,6.029,13.2996,4.60067,2470.366,2021-2-09T06:46:02Z
2021-02-09T04:48:02Z,42.805,6.029,13.2995,4.60060,2470.39,2021-2-09T06:49:05Z
2021-02-09T04:51:05Z,42.805,6.029,13.3011,4.60089,2470.38,2021-2-09T06:52:08Z
2021-02-09T04:54:08Z,42.805,6.029,13.2995,4.60053,2470.39,2021-2-09T06:55:12Z
2021-02-09T04:57:11Z,42.805,6.029,13.2996,4.60046,2470.38,2021-2-09T06:58:15Z
2021-02-09T05:00:14Z,42.805,6.029,13.2998,4.60065,2470.404,2021-2-09T07:01:18Z
2021-02-09T05:03:18Z,42.805,6.029,13.2998,4.60064,2470.404,2021-2-09T07:04:21Z
2021-02-09T05:06:21Z,42.805,6.029,13.3004,4.60035,2470.39,2021-2-09T07:07:24Z
2021-02-09T05:09:24Z,42.805,6.029,13.3007,4.60069,2470.39,2021-2-09T07:10:27Z
2021-02-09T05:12:27Z,42.805,6.029,13.3008,4.60049,2470.404,2021-2-09T07:13:30Z
2021-02-09T05:15:30Z,42.805,6.029,13.3000,4.60062,2470.38,2021-2-09T07:16:33Z
2021-02-09T05:18:33Z,42.805,6.029,13.3001,4.60039,2470.427,2021-2-09T07:19:37Z
2021-02-09T05:21:36Z,42.805,6.029,13.2992,4.60040,2470.366,2021-2-09T07:22:40Z
2021-02-09T05:24:39Z,42.805,6.029,13.2997,4.60036,2470.366,2021-2-09T07:25:43Z
2021-02-09T05:27:42Z,42.805,6.029,13.3003,4.60024,2470.366,2021-2-09T07:28:46Z
2021-02-09T05:30:46Z,42.805,6.029,13.2990,4.60027,2470.39,2021-2-09T07:31:49Z
2021-02-09T05:33:49Z,42.805,6.029,13.3000,4.60034,2470.39,2021-2-09T07:34:52Z
2021-02-09T05:36:52Z,42.805,6.029,13.3002,4.60026,2470.404,2021-2-09T07:37:55Z
2021-02-09T05:39:55Z,42.805,6.029,13.3004,4.60033,2470.38,2021-2-09T07:40:58Z
2021-02-09T05:42:58Z,42.805,6.029,13.2996,4.60042,2470.39,2021-2-09T07:44:01Z
2021-02-09T05:46:01Z,42.805,6.029,13.2994,4.60072,2470.413,2021-2-09T07:47:05Z
2021-02-09T05:49:04Z,42.805,6.029,13.2996,4.60048,2470.404,2021-2-09T07:50:08Z
2021-02-09T05:52:07Z,42.805,6.029,13.3002,4.60039,2470.39,2021-2-09T07:53:11Z
2021-02-09T05:55:11Z,42.805,6.029,13.2998,4.60031,2470.366,2021-2-09T07:56:14Z
2021-02-09T05:58:14Z,42.805,6.029,13.3003,4.60057,2470.38,2021-2-09T07:59:17Z
2021-02-09T06:01:17Z,42.805,6.029,13.3005,4.60059,2470.404,2021-2-09T08:02:20Z
2021-02-09T06:04:20Z,42.805,6.029,13.3002,4.60059,2470.413,2021-2-09T08:05:23Z
2021-02-09T06:07:23Z,42.805,6.029,13.3004,4.60057,2470.39,2021-2-09T08:08:26Z
2021-02-09T06:10:26Z,42.805,6.029,13.2997,4.60052,2470.39,2021-2-09T08:11:30Z
2021-02-09T06:13:29Z,42.805,6.029,13.2994,4.60068,2470.413,2021-2-09T08:14:33Z
2021-02-09T06:16:32Z,42.805,6.029,13.2998,4.60009,2470.404,2021-2-09T08:17:36Z
2021-02-09T06:19:35Z,42.805,6.029,13.3009,4.60046,2470.366,2021-2-09T08:20:39Z
2021-02-09T06:22:39Z,42.805,6.029,13.2998,4.60068,2470.404,2021-2-09T08:23:42Z
2021-02-09T06:25:42Z,42.805,6.029,13.3003,4.60043,2470.427,2021-2-09T08:26:45Z
2021-02-09T06:28:45Z,42.805,6.029,13.3019,4.60043,2470.45,2021-2-09T08:29:48Z
2021-02-09T06:31:48Z,42.805,6.029,13.3011,4.60055,2470.427,2021-2-09T08:32:51Z
2021-02-09T06:34:51Z,42.805,6.029,13.3004,4.60078,2470.404,2021-2-09T08:35:54Z
2021-02-09T06:37:54Z,42.805,6.029,13.3019,4.60070,2470.39,2021-2-09T08:38:58Z
2021-02-09T06:40:57Z,42.805,6.029,13.3011,4.60058,2470.38,2021-2-09T08:42:01Z
2021-02-09T06:44:00Z,42.805,6.029,13.3020,4.60032,2470.413,2021-2-09T08:45:04Z
2021-02-09T06:47:04Z,42.805,6.029,13.3004,4.60032,2470.39,2021-2-09T08:48:07Z
2021-02-09T06:50:07Z,42.805,6.029,13.3008,4.60039,2470.404,2021-2-09T08:51:10Z
2021-02-09T06:53:10Z,42.805,6.029,13.3006,4.60067,2470.427,2021-2-09T08:54:13Z
2021-02-09T06:56:13Z,42.805,6.029,13.3009,4.60044,2470.404,2021-2-09T08:57:16Z
2021-02-09T06:59:16Z,42.805,6.029,13.3006,4.60056,2470.404,2021-2-09T09:00:19Z
2021-02-09T07:02:19Z,42.805,6.029,13.3007,4.60049,2470.38,2021-2-09T09:03:23Z
2021-02-09T07:05:22Z,42.805,6.029,13.3009,4.60051,2470.404,2021-2-09T09:06:26Z
2021-02-09T07:08:25Z,42.805,6.029,13.3008,4.60059,2470.404,2021-2-09T09:09:29Z
2021-02-09T07:11:28Z,42.805,6.029,13.3021,4.60035,2470.404,2021-2-09T09:12:32Z
2021-02-09T07:14:32Z,42.805,6.029,13.3013,4.60050,2470.38,2021-2-09T09:15:35Z
2021-02-09T07:17:35Z,42.805,6.029,13.3016,4.60070,2470.366,2021-2-09T09:18:38Z
2021-02-09T07:20:38Z,42.805,6.029,13.3006,4.60049,2470.404,2021-2-09T09:21:41Z
2021-02-09T07:23:41Z,42.805,6.029,13.2999,4.60072,2470.404,2021-2-09T09:24:44Z
2021-02-09T07:26:44Z,42.805,6.029,13.3006,4.60095,2470.38,2021-2-09T09:27:48Z
2021-02-09T07:29:47Z,42.805,6.029,13.3019,4.60064,2470.39,2021-2-09T09:30:51Z
2021-02-09T07:32:50Z,42.805,6.029,13.3004,4.60067,2470.39,2021-2-09T09:33:54Z
2021-02-09T07:35:53Z,42.805,6.029,13.3000,4.60049,2470.343,2021-2-09T09:36:57Z
2021-02-09T07:38:57Z,42.805,6.029,13.2998,4.60044,2470.38,2021-2-09T09:40:00Z
2021-02-09T07:42:00Z,42.805,6.029,13.3001,4.60030,2470.404,2021-2-09T09:43:03Z
2021-02-09T07:45:03Z,42.805,6.029,13.3000,4.60072,2470.366,2021-2-09T09:46:06Z
2021-02-09T07:48:06Z,42.805,6.029,13.3010,4.60057,2470.39,2021-2-09T09:49:09Z
2021-02-09T07:51:09Z,42.805,6.029,13.3012,4.60081,2470.366,2021-2-09T09:52:12Z
2021-02-09T07:54:12Z,42.805,6.029,13.2999,4.60059,2470.404,2021-2-09T09:55:16Z
2021-02-09T07:57:15Z,42.805,6.029,13.3013,4.60057,2470.366,2021-2-09T09:58:19Z
2021-02-09T08:00:18Z,42.805,6.029,13.2993,4.60042,2470.404,2021-2-09T10:01:22Z
2021-02-09T08:03:22Z,42.805,6.029,13.2999,4.60053,2470.39,2021-2-09T10:04:25Z
2021-02-09T08:06:25Z,42.805,6.029,13.2996,4.60091,2470.357,2021-2-09T10:07:28Z
2021-02-09T08:09:28Z,42.805,6.029,13.3009,4.60060,2470.38,2021-2-09T10:10:31Z
2021-02-09T08:12:31Z,42.805,6.029,13.3039,4.60046,2470.39,2021-2-09T10:13:34Z
2021-02-09T08:15:34Z,42.805,6.029,13.3007,4.60079,2470.366,2021-2-09T10:16:37Z
2021-02-09T08:18:37Z,42.805,6.029,13.3008,4.60081,2470.366,2021-2-09T10:19:41Z
2021-02-09T08:21:40Z,42.805,6.029,13.2998,4.60068,2470.38,2021-2-09T10:22:44Z
2021-02-09T08:24:43Z,42.805,6.029,13.3006,4.60031,2470.404,2021-2-09T10:25:47Z
2021-02-09T08:27:47Z,42.805,6.029,13.3006,4.60036,2470.357,2021-2-09T10:28:50Z
2021-02-09T08:30:50Z,42.805,6.029,13.3011,4.60061,2470.357,2021-2-09T10:31:53Z
2021-02-09T08:33:53Z,42.805,6.029,13.3017,4.60055,2470.366,2021-2-09T10:34:56Z
2021-02-09T08:36:56Z,42.805,6.029,13.3010,4.60056,2470.343,2021-2-09T10:37:59Z
2021-02-09T08:39:59Z,42.805,6.029,13.2999,4.60053,2470.357,2021-2-09T10:41:02Z
2021-02-09T08:43:02Z,42.805,6.029,13.3020,4.60064,2470.343,2021-2-09T10:44:06Z
2021-02-09T08:46:05Z,42.805,6.029,13.3014,4.60074,2470.343,2021-2-09T10:47:09Z
2021-02-09T08:49:08Z,42.805,6.029,13.3015,4.60098,2470.38,2021-2-09T10:50:12Z
2021-02-09T08:52:11Z,42.805,6.029,13.3009,4.60107,2470.357,2021-2-09T10:53:15Z
2021-02-09T08:55:15Z,42.805,6.029,13.3014,4.60077,2470.343,2021-2-09T10:56:18Z
2021-02-09T08:58:18Z,42.805,6.029,13.3020,4.60055,2470.343,2021-2-09T10:59:21Z
2021-02-09T09:01:21Z,42.805,6.029,13.3023,4.60076,2470.366,2021-2-09T11:02:24Z
2021-02-09T09:04:24Z,42.805,6.029,13.3012,4.60074,2470.357,2021-2-09T11:05:27Z
2021-02-09T09:07:27Z,42.805,6.029,13.3004,4.60092,2470.357,2021-2-09T11:08:31Z
2021-02-09T09:10:30Z,42.805,6.029,13.3031,4.60060,2470.343,2021-2-09T11:11:34Z
2021-02-09T09:13:33Z,42.805,6.029,13.3020,4.60073,2470.334,2021-2-09T11:14:37Z
2021-02-09T09:16:36Z,42.805,6.029,13.2997,4.60032,2470.357,2021-2-09T11:17:40Z
2021-02-09T09:19:40Z,42.805,6.029,13.3006,4.60091,2470.343,2021-2-09T11:20:43Z
2021-02-09T09:22:43Z,42.805,6.029,13.3004,4.60047,2470.343,2021-2-09T11:23:46Z
2021-02-09T09:25:46Z,42.805,6.029,13.3014,4.60087,2470.343,2021-2-09T11:26:49Z
2021-02-09T09:28:49Z,42.805,6.029,13.3009,4.60060,2470.334,2021-2-09T11:29:52Z
2021-02-09T09:31:52Z,42.805,6.029,13.3004,4.60074,2470.334,2021-2-09T11:32:56Z
2021-02-09T09:34:55Z,42.805,6.029,13.3028,4.60072,2470.343,2021-2-09T11:35:59Z
2021-02-09T09:37:58Z,42.805,6.029,13.3011,4.60084,2470.357,2021-2-09T11:39:02Z
2021-02-09T09:41:01Z,42.805,6.029,13.3011,4.60079,2470.32,2021-2-09T11:42:05Z
2021-02-09T09:44:05Z,42.805,6.029,13.3020,4.60066,2470.32,2021-2-09T11:45:08Z
2021-02-09T09:47:08Z,42.805,6.029,13.3020,4.60066,2470.334,2021-2-09T11:48:11Z
2021-02-09T09:50:11Z,42.805,6.029,13.3021,4.60063,2470.33,2021-2-09T11:51:14Z
2021-02-09T09:53:14Z,42.805,6.029,13.3010,4.60074,2470.32,2021-2-09T11:54:17Z
2021-02-09T09:56:17Z,42.805,6.029,13.3011,4.60067,2470.357,2021-2-09T11:57:21Z
2021-02-09T09:59:20Z,42.805,6.029,13.3019,4.60064,2470.297,2021-2-09T12:00:24Z
2021-02-09T10:02:23Z,42.805,6.029,13.2998,4.60084,2470.334,2021-2-09T12:03:27Z
2021-02-09T10:05:26Z,42.805,6.029,13.3021,4.60070,2470.366,2021-2-09T12:06:30Z
2021-02-09T10:08:30Z,42.805,6.029,13.3018,4.60086,2470.31,2021-2-09T12:09:33Z
2021-02-09T10:11:33Z,42.805,6.029,13.3021,4.60091,2470.31,2021-2-09T12:12:36Z
2021-02-09T10:14:36Z,42.805,6.029,13.3021,4.60090,2470.32,2021-2-09T12:15:39Z
2021-02-09T10:17:39Z,42.805,6.029,13.3014,4.60077,2470.343,2021-2-09T12:18:42Z
2021-02-09T10:20:42Z,42.805,6.029,13.3011,4.60099,2470.334,2021-2-09T12:21:46Z
2021-02-09T10:23:45Z,42.805,6.029,13.3000,4.60121,2470.334,2021-2-09T12:24:49Z
2021-02-09T10:26:48Z,42.805,6.029,13.3001,4.60058,2470.297,2021-2-09T12:27:52Z
2021-02-09T10:29:51Z,42.805,6.029,13.3011,4.60074,2470.32,2021-2-09T12:30:55Z
2021-02-09T10:32:55Z,42.805,6.029,13.3012,4.60043,2470.297,2021-2-09T12:33:58Z
2021-02-09T10:35:58Z,42.805,6.029,13.3003,4.60059,2470.32,2021-2-09T12:37:01Z
2021-02-09T10:39:01Z,42.805,6.029,13.3009,4.60068,2470.31,2021-2-09T12:40:04Z
2021-02-09T10:42:04Z,42.805,6.029,13.3012,4.60069,2470.31,2021-2-09T12:43:07Z
2021-02-09T10:45:07Z,42.805,6.029,13.3033,4.60077,2470.31,2021-2-09T12:46:10Z
2021-02-09T10:48:10Z,42.805,6.029,13.3023,4.60081,2470.31,2021-2-09T12:49:14Z
2021-02-09T10:51:13Z,42.805,6.029,13.3018,4.60085,2470.297,2021-2-09T12:52:17Z
2021-02-09T10:54:16Z,42.805,6.029,13.3021,4.60080,2470.287,2021-2-09T12:55:20Z
2021-02-09T10:57:20Z,42.805,6.029,13.3012,4.60087,2470.31,2021-2-09T12:58:23Z
2021-02-09T11:00:23Z,42.805,6.029,13.2996,4.60077,2470.32,2021-2-09T13:01:26Z
2021-02-09T11:03:26Z,42.805,6.029,13.3008,4.60049,2470.287,2021-2-09T13:04:29Z
2021-02-09T11:06:29Z,42.805,6.029,13.3012,4.60073,2470.273,2021-2-09T13:07:32Z
2021-02-09T11:09:32Z,42.805,6.029,13.3002,4.60069,2470.25,2021-2-09T13:10:35Z
2021-02-09T11:12:35Z,42.805,6.029,13.3011,4.60054,2470.264,2021-2-09T13:13:39Z
2021-02-09T11:18:41Z,42.805,6.029,13.2999,4.60057,2470.264,2021-2-09T13:19:45Z
2021-02-09T11:21:44Z,42.805,6.029,13.3015,4.60057,2470.273,2021-2-09T13:22:48Z
2021-02-09T11:24:48Z,42.805,6.029,13.3017,4.60052,2470.273,2021-2-09T13:25:51Z
2021-02-09T11:27:51Z,42.805,6.029,13.3006,4.60044,2470.25,2021-2-09T13:28:54Z
2021-02-09T11:30:54Z,42.805,6.029,13.3004,4.60040,2470.25,2021-2-09T13:31:57Z
2021-02-09T11:33:57Z,42.805,6.029,13.3016,4.60046,2470.264,2021-2-09T13:35:00Z
2021-02-09T11:37:00Z,42.805,6.029,13.3000,4.60033,2470.264,2021-2-09T13:38:03Z
2021-02-09T11:40:03Z,42.805,6.029,13.2998,4.60043,2470.25,2021-2-09T13:41:07Z
2021-02-09T11:43:06Z,42.805,6.029,13.2999,4.60041,2470.273,2021-2-09T13:44:10Z
2021-02-09T11:46:09Z,42.805,6.029,13.3002,4.60022,2470.24,2021-2-09T13:47:13Z
2021-02-09T11:49:13Z,42.805,6.029,13.2996,4.60040,2470.24,2021-2-09T13:50:16Z
2021-02-09T11:52:16Z,42.805,6.029,13.2996,4.60034,2470.24,2021-2-09T13:53:19Z
2021-02-09T11:55:19Z,42.805,6.029,13.3003,4.60030,2470.264,2021-2-09T13:56:22Z
2021-02-09T11:58:22Z,42.805,6.029,13.2999,4.60025,2470.227,2021-2-09T13:59:25Z
2021-02-09T12:01:25Z,42.805,6.029,13.3005,4.60057,2470.24,2021-2-09T14:02:28Z
2021-02-09T12:04:28Z,42.805,6.029,13.3004,4.60052,2470.25,2021-2-09T14:05:32Z
2021-02-09T12:07:31Z,42.805,6.029,13.3006,4.60044,2470.25,2021-2-09T14:08:35Z
2021-02-09T12:10:34Z,42.805,6.029,13.2998,4.60039,2470.227,2021-2-09T14:11:38Z
2021-02-09T12:13:37Z,42.805,6.029,13.3000,4.60044,2470.24,2021-2-09T14:14:41Z
2021-02-09T12:16:41Z,42.805,6.029,13.2998,4.60034,2470.25,2021-2-09T14:17:44Z
2021-02-09T12:19:44Z,42.805,6.029,13.2998,4.60039,2470.203,2021-2-09T14:20:47Z
2021-02-09T12:22:47Z,42.805,6.029,13.2998,4.60032,2470.25,2021-2-09T14:23:50Z
2021-02-09T12:25:50Z,42.805,6.029,13.2996,4.60039,2470.18,2021-2-09T14:26:53Z
2021-02-09T12:28:53Z,42.805,6.029,13.3000,4.60039,2470.24,2021-2-09T14:29:57Z
2021-02-09T12:31:56Z,42.805,6.029,13.3003,4.60033,2470.24,2021-2-09T14:33:00Z
2021-02-09T12:34:59Z,42.805,6.029,13.2999,4.60037,2470.203,2021-2-09T14:36:03Z
2021-02-09T12:38:02Z,42.805,6.029,13.3000,4.60046,2470.18,2021-2-09T14:39:06Z
2021-02-09T12:41:06Z,42.805,6.029,13.2999,4.60034,2470.203,2021-2-09T14:42:09Z
2021-02-09T12:44:09Z,42.805,6.029,13.3001,4.60034,2470.227,2021-2-09T14:45:12Z
2021-02-09T12:47:12Z,42.805,6.029,13.2995,4.60036,2470.24,2021-2-09T14:48:15Z
2021-02-09T12:50:15Z,42.805,6.029,13.3002,4.60054,2470.24,2021-2-09T14:51:18Z
2021-02-09T12:53:18Z,42.805,6.029,13.2996,4.60036,2470.217,2021-2-09T14:54:21Z
2021-02-09T12:56:21Z,42.805,6.029,13.2997,4.60038,2470.203,2021-2-09T14:57:25Z
2021-02-09T12:59:24Z,42.805,6.029,13.3000,4.60031,2470.217,2021-2-09T15:00:28Z
2021-02-09T13:02:27Z,42.805,6.029,13.2998,4.60048,2470.24,2021-2-09T15:03:31Z
2021-02-09T13:05:31Z,42.805,6.029,13.3000,4.60077,2470.217,2021-2-09T15:06:34Z
2021-02-09T13:08:34Z,42.805,6.029,13.3004,4.60060,2470.227,2021-2-09T15:09:37Z
2021-02-09T13:11:37Z,42.805,6.029,13.2999,4.60044,2470.18,2021-2-09T15:12:40Z
2021-02-09T13:14:40Z,42.805,6.029,13.3004,4.60059,2470.25,2021-2-09T15:15:43Z
2021-02-09T13:17:43Z,42.805,6.029,13.3004,4.60047,2470.24,2021-2-09T15:18:46Z
2021-02-09T13:20:46Z,42.805,6.029,13.2999,4.60038,2470.194,2021-2-09T15:21:50Z
2021-02-09T13:23:49Z,42.805,6.029,13.3011,4.60044,2470.194,2021-2-09T15:24:53Z
2021-02-09T13:26:52Z,42.805,6.029,13.3010,4.60050,2470.194,2021-2-09T15:27:56Z
2021-02-09T13:29:56Z,42.805,6.029,13.3010,4.60044,2470.217,2021-2-09T15:30:59Z
2021-02-09T13:32:59Z,42.805,6.029,13.3004,4.60048,2470.203,2021-2-09T15:34:02Z
2021-02-09T13:36:02Z,42.805,6.029,13.3002,4.60051,2470.203,2021-2-09T15:37:05Z
2021-02-09T13:39:05Z,42.805,6.029,13.3001,4.60051,2470.227,2021-2-09T15:40:08Z
2021-02-09T13:42:08Z,42.805,6.029,13.3005,4.60067,2470.217,2021-2-09T15:43:11Z
2021-02-09T13:45:11Z,42.805,6.029,13.2998,4.60023,2470.203,2021-2-09T15:46:15Z
2021-02-09T13:48:14Z,42.805,6.029,13.3006,4.60034,2470.203,2021-2-09T15:49:18Z
2021-02-09T13:51:17Z,42.805,6.029,13.3009,4.60040,2470.18,2021-2-09T15:52:21Z
2021-02-09T13:54:21Z,42.805,6.029,13.2997,4.60032,2470.203,2021-2-09T15:55:24Z
2021-02-09T13:57:24Z,42.805,6.029,13.3003,4.60024,2470.203,2021-2-09T15:58:27Z
2021-02-09T14:00:27Z,42.805,6.029,13.2999,4.60035,2470.18,2021-2-09T16:01:30Z
2021-02-09T14:03:30Z,42.805,6.029,13.2998,4.60050,2470.166,2021-2-09T16:04:33Z
2021-02-09T14:06:33Z,42.805,6.029,13.3003,4.60036,2470.24,2021-2-09T16:07:36Z
2021-02-09T14:09:36Z,42.805,6.029,13.2991,4.60042,2470.203,2021-2-09T16:10:40Z
2021-02-09T14:12:39Z,42.805,6.029,13.2992,4.60044,2470.227,2021-2-09T16:13:43Z
2021-02-09T14:15:42Z,42.805,6.029,13.3000,4.60033,2470.227,2021-2-09T16:16:46Z
2021-02-09T14:18:46Z,42.805,6.029,13.2991,4.60021,2470.203,2021-2-09T16:19:49Z
2021-02-09T14:21:49Z,42.805,6.029,13.3000,4.60042,2470.217,2021-2-09T16:22:52Z
2021-02-09T14:24:52Z,42.805,6.029,13.3004,4.60057,2470.227,2021-2-09T16:25:55Z
2021-02-09T14:27:55Z,42.805,6.029,13.3003,4.60043,2470.227,2021-2-09T16:28:58Z
2021-02-09T14:30:58Z,42.805,6.029,13.2996,4.60047,2470.217,2021-2-09T16:32:01Z
2021-02-09T14:34:01Z,42.805,6.029,13.2993,4.60034,2470.264,2021-2-09T16:35:05Z
2021-02-09T14:37:04Z,42.805,6.029,13.2996,4.60039,2470.227,2021-2-09T16:38:08Z
2021-02-09T14:40:07Z,42.805,6.029,13.3000,4.60045,2470.24,2021-2-09T16:41:11Z
2021-02-09T14:43:11Z,42.805,6.029,13.2996,4.60039,2470.227,2021-2-09T16:44:14Z
2021-02-09T14:46:14Z,42.805,6.029,13.2994,4.60041,2470.203,2021-2-09T16:47:17Z
2021-02-09T14:49:17Z,42.805,6.029,13.3003,4.60034,2470.24,2021-2-09T16:50:20Z
2021-02-09T14:52:20Z,42.805,6.029,13.2998,4.60026,2470.24,2021-2-09T16:53:23Z
2021-02-09T14:55:23Z,42.805,6.029,13.3000,4.60069,2470.227,2021-2-09T16:56:26Z
2021-02-09T14:58:26Z,42.805,6.029,13.2989,4.60026,2470.217,2021-2-09T16:59:30Z
2021-02-09T15:01:29Z,42.805,6.029,13.3002,4.60052,2470.227,2021-2-09T17:02:33Z
2021-02-09T15:04:32Z,42.805,6.029,13.3009,4.60046,2470.264,2021-2-09T17:05:36Z
2021-02-09T15:07:35Z,42.805,6.029,13.3007,4.60051,2470.25,2021-2-09T17:08:39Z
2021-02-09T15:10:39Z,42.805,6.029,13.3005,4.60056,2470.227,2021-2-09T17:11:42Z
2021-02-09T15:13:42Z,42.805,6.029,13.3006,4.60054,2470.25,2021-2-09T17:14:45Z
2021-02-09T15:16:45Z,42.805,6.029,13.3007,4.60056,2470.25,2021-2-09T17:17:48Z